VANGUARD DEB, 61446

Orbit data source: Space-Track

VANGUARD DEB, 61446 is space debris in LEO originally from a launch on Tue, 17 Feb 1959 UTC launched from the Air Force Eastern Test Range (AFETR). Debris objects in space refer to the collection of defunct objects orbiting the Earth. Examples of debris include non-operational satellites, rocket bodies, and fragments generated from explosions, collisions, or faulty payload assembly.

Loading next visibility...
Identifier
61446, 1959-001E
Orbit
LEO
Country
Flag of USUS
Related business
Manufacturer
Unknown
Mission
Spacecraft
Bus & Motor
Unknown
Mass
Unknown
Launch date (UTC)
1959-02-17 (67 years ago)
Launch vehicle
Unknown
Launch site
Air Force Eastern Test Range (AFETR)
Object type
Payload
Rocket body
Debris
Shape & HBR
Unknown shape, 0.1 m
Radar Cross Section
Medium (>0.1 m² and <1 m²)

Expand to show TLE details & history
Last TLE update: 1 week ago

TLE from 1 week ago
0 VANGUARD DEB
1 61446U 59001E   26152.05934278  .00006048  00000-0  23848-2 0  9995
2 61446  32.8591 149.3815 1215180  12.2380  25.2265 12.44555680982883
Epoch: 2026-06-01T01:25Z
TLE epoch observation values (Epoch: 2026-06-01T01:25:27.216Z)
Latitude
22.37316°
Longitude
-82.20718°
Altitude
646.649 km
Speed
7.929 km/s
True Right ascension
12h 34m 49s
True Declination
22° 15' 02"
Sunlit
Object was in daylight at epoch
Visualization orbit readout
Latitude
Unknown
Longitude
Unknown
Altitude
Unknown
Speed
Unknown
Apparent Right ascension
Unknown
Apparent Declination
Unknown
Sunlit
N/A
Visualization observer readout
Local Sidereal Time
04:02:06
Azimuth
Unknown
Elevation
Unknown
Doppler factor
Unknown
Orbital elements
Apogee altitude
2,446.741 km
Perigee altitude
534.366 km
Semi-major axis
7,868.69 km
Eccentricity
0.12152
Inclination
32.8591°
RAAN
149.3815°
Arg. of periapsis
12.238°
True anomaly
32.08287°
Mean anomaly
25.2265°
Eccentric anomaly
28.55452°
Mean motion
3.10949 °/min
Orbital period
115.77 mins
BSTAR
0.0023848
Loading maneuver chart data...
Computing Atmospheric mass density...
Loading historical data...
Loading historical data...
Loading historical data...
Loading historical data...
Loading historical data...
Loading historical data...
Loading historical data...
Other satellites on launch #1 in the year 1959 (1959-02-17 UTC)

Documentation

Showing up to 5 results
|